Location: Bratislava
(48.1500°N, 17.1170°E)
Time: 06:17:06
(UTC+01:00)

Tiangong 2 - Pass Details

Date: 24 January 2019
Orbit: 380 x 390 km, 42.8° (Epoch: 20 February)

Event Time Altitude Azimuth Distance (km) Brightness Sun altitude
Exits shadow 05:12:42 25° 154° (SSE) 827 3.0 -22.6°
Drops below altitude 10° 05:14:38 10° 123° (ESE) 1,411 4.8 -22.3°
Sets 05:16:51 0° 112° (ESE) 2,266 6.3 -21.9°
